owner,sensor,date,latitude,longitude,vertical_datum,sea_water_practical_salinity,qcFlag 
NERRS,ioos:station:NOAA.NERRS:rkblhwq:1,2019-10-01T00:45:00Z,26.0257,-81.7332,1.24,32.1,11111222 
NERRS,ioos:station:NOAA.NERRS:rkblhwq:1,2019-10-01T01:45:00Z,26.0257,-81.7332,1.14,32.1,11111222 
NERRS,ioos:station:NOAA.NERRS:rkblhwq:1,2019-10-01T02:45:00Z,26.0257,-81.7332,1.16,32.0,11111222 
NERRS,ioos:station:NOAA.NERRS:rkblhwq:1,2019-10-01T03:45:00Z,26.0257,-81.7332,1.29,32.3,11111222 
NERRS,ioos:station:NOAA.NERRS:rkblhwq:1,2019-10-01T04:45:00Z,26.0257,-81.7332,1.45,32.7,11111222 
NERRS,ioos:station:NOAA.NERRS:rkblhwq:1,2019-10-01T05:45:00Z,26.0257,-81.7332,1.6,33.1,11111222 
NERRS,ioos:station:NOAA.NERRS:rkblhwq:1,2019-10-01T06:45:00Z,26.0257,-81.7332,1.69,33.1,11111222 
NERRS,ioos:station:NOAA.NERRS:rkblhwq:1,2019-10-01T07:45:00Z,26.0257,-81.7332,1.72,33.3,11111222 
NERRS,ioos:station:NOAA.NERRS:rkblhwq:1,2019-10-01T08:45:00Z,26.0257,-81.7332,1.69,33.2,11111222 
NERRS,ioos:station:NOAA.NERRS:rkblhwq:1,2019-10-01T09:45:00Z,26.0257,-81.7332,1.59,32.9,11111222 
NERRS,ioos:station:NOAA.NERRS:rkblhwq:1,2019-10-01T10:45:00Z,26.0257,-81.7332,1.46,32.4,11111222 
NERRS,ioos:station:NOAA.NERRS:rkblhwq:1,2019-10-01T11:45:00Z,26.0257,-81.7332,1.3,32.2,11111222 
NERRS,ioos:station:NOAA.NERRS:rkblhwq:1,2019-10-01T12:45:00Z,26.0257,-81.7332,1.13,32.3,11111222 
NERRS,ioos:station:NOAA.NERRS:rkblhwq:1,2019-10-01T13:45:00Z,26.0257,-81.7332,0.99,32.4,11111222 
NERRS,ioos:station:NOAA.NERRS:rkblhwq:1,2019-10-01T14:45:00Z,26.0257,-81.7332,0.9,32.2,11111222 
NERRS,ioos:station:NOAA.NERRS:rkblhwq:1,2019-10-01T15:45:00Z,26.0257,-81.7332,0.97,32.0,11111222 
NERRS,ioos:station:NOAA.NERRS:rkblhwq:1,2019-10-01T16:45:00Z,26.0257,-81.7332,1.12,32.2,11111222 
NERRS,ioos:station:NOAA.NERRS:rkblhwq:1,2019-10-01T17:45:00Z,26.0257,-81.7332,1.31,32.7,11111222 
NERRS,ioos:station:NOAA.NERRS:rkblhwq:1,2019-10-01T18:45:00Z,26.0257,-81.7332,1.48,33.0,11111222 
NERRS,ioos:station:NOAA.NERRS:rkblhwq:1,2019-10-01T19:45:00Z,26.0257,-81.7332,1.62,33.1,11111222 
NERRS,ioos:station:NOAA.NERRS:rkblhwq:1,2019-10-01T20:45:00Z,26.0257,-81.7332,1.69,33.2,11111222 
NERRS,ioos:station:NOAA.NERRS:rkblhwq:1,2019-10-01T21:45:00Z,26.0257,-81.7332,1.69,33.4,11111222 
NERRS,ioos:station:NOAA.NERRS:rkblhwq:1,2019-10-01T22:45:00Z,26.0257,-81.7332,1.62,33.0,11111222 
NERRS,ioos:station:NOAA.NERRS:rkblhwq:1,2019-10-01T23:45:00Z,26.0257,-81.7332,1.51,32.9,11111222 
NERRS,ioos:station:NOAA.NERRS:rkblhwq:1,2019-10-02T00:45:00Z,26.0257,-81.7332,1.4,32.8,11111222 
NERRS,ioos:station:NOAA.NERRS:rkblhwq:1,2019-10-02T01:45:00Z,26.0257,-81.7332,1.29,32.5,11111222 
NERRS,ioos:station:NOAA.NERRS:rkblhwq:1,2019-10-02T02:45:00Z,26.0257,-81.7332,1.22,32.4,11111222 
NERRS,ioos:station:NOAA.NERRS:rkblhwq:1,2019-10-02T03:45:00Z,26.0257,-81.7332,1.3,32.8,11111222 
NERRS,ioos:station:NOAA.NERRS:rkblhwq:1,2019-10-02T04:45:00Z,26.0257,-81.7332,1.44,32.9,11111222 
NERRS,ioos:station:NOAA.NERRS:rkblhwq:1,2019-10-02T05:45:00Z,26.0257,-81.7332,1.58,33.1,11111222 
NERRS,ioos:station:NOAA.NERRS:rkblhwq:1,2019-10-02T06:45:00Z,26.0257,-81.7332,1.68,33.4,11111222 
NERRS,ioos:station:NOAA.NERRS:rkblhwq:1,2019-10-02T07:45:00Z,26.0257,-81.7332,1.72,33.5,11111222 
NERRS,ioos:station:NOAA.NERRS:rkblhwq:1,2019-10-02T08:45:00Z,26.0257,-81.7332,1.76,21.4,11111222 
NERRS,ioos:station:NOAA.NERRS:rkblhwq:1,2019-10-02T09:45:00Z,26.0257,-81.7332,1.69,33.1,11111222 
NERRS,ioos:station:NOAA.NERRS:rkblhwq:1,2019-10-02T10:45:00Z,26.0257,-81.7332,1.59,33.2,11111222 
NERRS,ioos:station:NOAA.NERRS:rkblhwq:1,2019-10-02T11:45:00Z,26.0257,-81.7332,1.45,32.8,11111222 
NERRS,ioos:station:NOAA.NERRS:rkblhwq:1,2019-10-02T12:45:00Z,26.0257,-81.7332,1.29,32.6,11111222 
NERRS,ioos:station:NOAA.NERRS:rkblhwq:1,2019-10-02T13:45:00Z,26.0257,-81.7332,1.13,32.5,11111222 
NERRS,ioos:station:NOAA.NERRS:rkblhwq:1,2019-10-02T14:45:00Z,26.0257,-81.7332,0.99,32.7,11111222 
NERRS,ioos:station:NOAA.NERRS:rkblhwq:1,2019-10-02T15:45:00Z,26.0257,-81.7332,0.93,32.4,11111222 
NERRS,ioos:station:NOAA.NERRS:rkblhwq:1,2019-10-02T17:45:00Z,26.0257,-81.7332,1.15,32.7,11111222 
NERRS,ioos:station:NOAA.NERRS:rkblhwq:1,2019-10-02T18:45:00Z,26.0257,-81.7332,1.3,33.3,11111222 
NERRS,ioos:station:NOAA.NERRS:rkblhwq:1,2019-10-02T19:45:00Z,26.0257,-81.7332,1.45,33.3,11111222 
NERRS,ioos:station:NOAA.NERRS:rkblhwq:1,2019-10-02T20:45:00Z,26.0257,-81.7332,1.56,33.2,11111222 
NERRS,ioos:station:NOAA.NERRS:rkblhwq:1,2019-10-02T21:45:00Z,26.0257,-81.7332,1.61,33.5,11111222 
NERRS,ioos:station:NOAA.NERRS:rkblhwq:1,2019-10-02T22:45:00Z,26.0257,-81.7332,1.59,33.2,11111222 
NERRS,ioos:station:NOAA.NERRS:rkblhwq:1,2019-10-02T23:45:00Z,26.0257,-81.7332,1.52,32.9,11111222 
NERRS,ioos:station:NOAA.NERRS:rkblhwq:1,2019-10-03T00:45:00Z,26.0257,-81.7332,1.43,32.2,11111222 
NERRS,ioos:station:NOAA.NERRS:rkblhwq:1,2019-10-03T01:45:00Z,26.0257,-81.7332,1.35,32.5,11111222 
NERRS,ioos:station:NOAA.NERRS:rkblhwq:1,2019-10-03T02:45:00Z,26.0257,-81.7332,1.28,32.3,11111222 
NERRS,ioos:station:NOAA.NERRS:rkblhwq:1,2019-10-03T03:45:00Z,26.0257,-81.7332,1.3,32.2,11111222 
NERRS,ioos:station:NOAA.NERRS:rkblhwq:1,2019-10-03T04:45:00Z,26.0257,-81.7332,1.4,33.1,11111222 
NERRS,ioos:station:NOAA.NERRS:rkblhwq:1,2019-10-03T05:45:00Z,26.0257,-81.7332,1.51,32.9,11111222 
NERRS,ioos:station:NOAA.NERRS:rkblhwq:1,2019-10-03T06:45:00Z,26.0257,-81.7332,1.62,33.2,11111222 
NERRS,ioos:station:NOAA.NERRS:rkblhwq:1,2019-10-03T07:45:00Z,26.0257,-81.7332,1.7,33.3,11111222 
NERRS,ioos:station:NOAA.NERRS:rkblhwq:1,2019-10-03T08:45:00Z,26.0257,-81.7332,1.75,33.4,11111222 
NERRS,ioos:station:NOAA.NERRS:rkblhwq:1,2019-10-03T09:45:00Z,26.0257,-81.7332,1.78,33.8,11111222 
NERRS,ioos:station:NOAA.NERRS:rkblhwq:1,2019-10-03T10:45:00Z,26.0257,-81.7332,1.73,33.3,11111222 
NERRS,ioos:station:NOAA.NERRS:rkblhwq:1,2019-10-03T11:45:00Z,26.0257,-81.7332,1.64,33.0,11111222 
NERRS,ioos:station:NOAA.NERRS:rkblhwq:1,2019-10-03T12:45:00Z,26.0257,-81.7332,1.52,32.4,11111222 
NERRS,ioos:station:NOAA.NERRS:rkblhwq:1,2019-10-03T13:45:00Z,26.0257,-81.7332,1.37,32.5,11111222 
NERRS,ioos:station:NOAA.NERRS:rkblhwq:1,2019-10-03T14:45:00Z,26.0257,-81.7332,1.21,32.4,11111222 
NERRS,ioos:station:NOAA.NERRS:rkblhwq:1,2019-10-03T15:45:00Z,26.0257,-81.7332,1.08,32.5,11111222 
NERRS,ioos:station:NOAA.NERRS:rkblhwq:1,2019-10-03T16:45:00Z,26.0257,-81.7332,1.02,32.6,11111222 
NERRS,ioos:station:NOAA.NERRS:rkblhwq:1,2019-10-03T17:45:00Z,26.0257,-81.7332,1.12,32.7,11111222 
NERRS,ioos:station:NOAA.NERRS:rkblhwq:1,2019-10-03T18:45:00Z,26.0257,-81.7332,1.24,32.8,11111222 
NERRS,ioos:station:NOAA.NERRS:rkblhwq:1,2019-10-03T19:45:00Z,26.0257,-81.7332,1.38,33.2,11111222 
NERRS,ioos:station:NOAA.NERRS:rkblhwq:1,2019-10-03T20:45:00Z,26.0257,-81.7332,1.49,33.3,11111222 
NERRS,ioos:station:NOAA.NERRS:rkblhwq:1,2019-10-03T21:45:00Z,26.0257,-81.7332,1.58,33.4,11111222 
NERRS,ioos:station:NOAA.NERRS:rkblhwq:1,2019-10-03T22:45:00Z,26.0257,-81.7332,1.63,33.6,11111222 
NERRS,ioos:station:NOAA.NERRS:rkblhwq:1,2019-10-03T23:45:00Z,26.0257,-81.7332,1.61,33.4,11111222 
NERRS,ioos:station:NOAA.NERRS:rkblhwq:1,2019-10-04T00:45:00Z,26.0257,-81.7332,1.56,32.8,11111222 
NERRS,ioos:station:NOAA.NERRS:rkblhwq:1,2019-10-04T01:45:00Z,26.0257,-81.7332,1.5,32.4,11111222 
NERRS,ioos:station:NOAA.NERRS:rkblhwq:1,2019-10-04T02:45:00Z,26.0257,-81.7332,1.44,32.4,11111222 
NERRS,ioos:station:NOAA.NERRS:rkblhwq:1,2019-10-04T03:45:00Z,26.0257,-81.7332,1.38,32.4,11111222 
NERRS,ioos:station:NOAA.NERRS:rkblhwq:1,2019-10-04T04:45:00Z,26.0257,-81.7332,1.38,32.5,11111222 
NERRS,ioos:station:NOAA.NERRS:rkblhwq:1,2019-10-04T05:45:00Z,26.0257,-81.7332,1.46,33.3,11111222 
NERRS,ioos:station:NOAA.NERRS:rkblhwq:1,2019-10-04T06:45:00Z,26.0257,-81.7332,1.56,33.2,11111222 
NERRS,ioos:station:NOAA.NERRS:rkblhwq:1,2019-10-04T07:45:00Z,26.0257,-81.7332,1.64,33.3,11111222 
NERRS,ioos:station:NOAA.NERRS:rkblhwq:1,2019-10-04T08:45:00Z,26.0257,-81.7332,1.71,33.5,11111222 
NERRS,ioos:station:NOAA.NERRS:rkblhwq:1,2019-10-04T09:45:00Z,26.0257,-81.7332,1.76,33.7,11111222 
NERRS,ioos:station:NOAA.NERRS:rkblhwq:1,2019-10-04T10:45:00Z,26.0257,-81.7332,1.76,33.9,11111222 
NERRS,ioos:station:NOAA.NERRS:rkblhwq:1,2019-10-04T11:45:00Z,26.0257,-81.7332,1.7,33.5,11111222 
NERRS,ioos:station:NOAA.NERRS:rkblhwq:1,2019-10-04T12:45:00Z,26.0257,-81.7332,1.62,33.0,11111222 
NERRS,ioos:station:NOAA.NERRS:rkblhwq:1,2019-10-04T13:45:00Z,26.0257,-81.7332,1.5,32.6,11111222 
NERRS,ioos:station:NOAA.NERRS:rkblhwq:1,2019-10-04T14:45:00Z,26.0257,-81.7332,1.35,32.6,11111222 
NERRS,ioos:station:NOAA.NERRS:rkblhwq:1,2019-10-04T15:45:00Z,26.0257,-81.7332,1.2,32.8,11111222 
NERRS,ioos:station:NOAA.NERRS:rkblhwq:1,2019-10-04T16:45:00Z,26.0257,-81.7332,1.09,32.7,11111222 
NERRS,ioos:station:NOAA.NERRS:rkblhwq:1,2019-10-04T17:45:00Z,26.0257,-81.7332,1.06,32.7,11111222 
NERRS,ioos:station:NOAA.NERRS:rkblhwq:1,2019-10-04T18:45:00Z,26.0257,-81.7332,1.14,33.1,11111222 
NERRS,ioos:station:NOAA.NERRS:rkblhwq:1,2019-10-04T19:45:00Z,26.0257,-81.7332,1.24,33.0,11111222 
NERRS,ioos:station:NOAA.NERRS:rkblhwq:1,2019-10-04T20:45:00Z,26.0257,-81.7332,1.36,33.1,11111222 
NERRS,ioos:station:NOAA.NERRS:rkblhwq:1,2019-10-04T21:45:00Z,26.0257,-81.7332,1.45,33.2,11111222 
NERRS,ioos:station:NOAA.NERRS:rkblhwq:1,2019-10-04T22:45:00Z,26.0257,-81.7332,1.53,33.4,11111222 
NERRS,ioos:station:NOAA.NERRS:rkblhwq:1,2019-10-04T23:45:00Z,26.0257,-81.7332,1.59,33.6,11111222 
NERRS,ioos:station:NOAA.NERRS:rkblhwq:1,2019-10-05T00:45:00Z,26.0257,-81.7332,1.59,33.5,11111222 
NERRS,ioos:station:NOAA.NERRS:rkblhwq:1,2019-10-05T01:45:00Z,26.0257,-81.7332,1.54,33.4,11111222 
NERRS,ioos:station:NOAA.NERRS:rkblhwq:1,2019-10-05T02:45:00Z,26.0257,-81.7332,1.5,33.1,11111222 
NERRS,ioos:station:NOAA.NERRS:rkblhwq:1,2019-10-05T03:45:00Z,26.0257,-81.7332,1.46,33.0,11111222 
NERRS,ioos:station:NOAA.NERRS:rkblhwq:1,2019-10-05T04:45:00Z,26.0257,-81.7332,1.45,33.1,11111222 
NERRS,ioos:station:NOAA.NERRS:rkblhwq:1,2019-10-05T05:45:00Z,26.0257,-81.7332,1.45,33.0,11111222 
NERRS,ioos:station:NOAA.NERRS:rkblhwq:1,2019-10-05T06:45:00Z,26.0257,-81.7332,1.47,33.6,11111222 
NERRS,ioos:station:NOAA.NERRS:rkblhwq:1,2019-10-05T07:45:00Z,26.0257,-81.7332,1.53,33.7,11111222 
NERRS,ioos:station:NOAA.NERRS:rkblhwq:1,2019-10-05T08:45:00Z,26.0257,-81.7332,1.6,33.7,11111222 
NERRS,ioos:station:NOAA.NERRS:rkblhwq:1,2019-10-05T09:45:00Z,26.0257,-81.7332,1.66,33.6,11111222 
NERRS,ioos:station:NOAA.NERRS:rkblhwq:1,2019-10-05T10:45:00Z,26.0257,-81.7332,1.69,33.7,11111222 
NERRS,ioos:station:NOAA.NERRS:rkblhwq:1,2019-10-05T11:45:00Z,26.0257,-81.7332,1.7,33.8,11111222 
NERRS,ioos:station:NOAA.NERRS:rkblhwq:1,2019-10-05T12:45:00Z,26.0257,-81.7332,1.64,33.6,11111222 
NERRS,ioos:station:NOAA.NERRS:rkblhwq:1,2019-10-05T13:45:00Z,26.0257,-81.7332,1.55,33.2,11111222 
NERRS,ioos:station:NOAA.NERRS:rkblhwq:1,2019-10-05T14:45:00Z,26.0257,-81.7332,1.43,33.0,11111222 
NERRS,ioos:station:NOAA.NERRS:rkblhwq:1,2019-10-05T15:45:00Z,26.0257,-81.7332,1.3,32.9,11111222 
NERRS,ioos:station:NOAA.NERRS:rkblhwq:1,2019-10-05T16:45:00Z,26.0257,-81.7332,1.17,32.8,11111222 
NERRS,ioos:station:NOAA.NERRS:rkblhwq:1,2019-10-05T17:45:00Z,26.0257,-81.7332,1.06,32.9,11111222 
NERRS,ioos:station:NOAA.NERRS:rkblhwq:1,2019-10-05T18:45:00Z,26.0257,-81.7332,1.01,32.7,11111222 
NERRS,ioos:station:NOAA.NERRS:rkblhwq:1,2019-10-05T19:45:00Z,26.0257,-81.7332,1.1,33.0,11111222 
NERRS,ioos:station:NOAA.NERRS:rkblhwq:1,2019-10-05T20:45:00Z,26.0257,-81.7332,1.21,33.0,11111222 
NERRS,ioos:station:NOAA.NERRS:rkblhwq:1,2019-10-05T21:45:00Z,26.0257,-81.7332,1.32,33.1,11111222 
NERRS,ioos:station:NOAA.NERRS:rkblhwq:1,2019-10-05T22:45:00Z,26.0257,-81.7332,1.42,33.4,11111222 
NERRS,ioos:station:NOAA.NERRS:rkblhwq:1,2019-10-05T23:45:00Z,26.0257,-81.7332,1.52,33.4,11111222 
NERRS,ioos:station:NOAA.NERRS:rkblhwq:1,2019-10-06T01:45:00Z,26.0257,-81.7332,1.6,33.4,11111222 
NERRS,ioos:station:NOAA.NERRS:rkblhwq:1,2019-10-06T02:45:00Z,26.0257,-81.7332,1.54,33.4,11111222 
NERRS,ioos:station:NOAA.NERRS:rkblhwq:1,2019-10-06T03:45:00Z,26.0257,-81.7332,1.48,33.4,11111222 
NERRS,ioos:station:NOAA.NERRS:rkblhwq:1,2019-10-06T04:45:00Z,26.0257,-81.7332,1.42,33.1,11111222 
NERRS,ioos:station:NOAA.NERRS:rkblhwq:1,2019-10-06T05:45:00Z,26.0257,-81.7332,1.39,33.0,11111222 
NERRS,ioos:station:NOAA.NERRS:rkblhwq:1,2019-10-06T06:45:00Z,26.0257,-81.7332,1.36,32.9,11111222 
NERRS,ioos:station:NOAA.NERRS:rkblhwq:1,2019-10-06T07:45:00Z,26.0257,-81.7332,1.41,33.3,11111222 
NERRS,ioos:station:NOAA.NERRS:rkblhwq:1,2019-10-06T08:45:00Z,26.0257,-81.7332,1.48,33.6,11111222 
NERRS,ioos:station:NOAA.NERRS:rkblhwq:1,2019-10-06T09:45:00Z,26.0257,-81.7332,1.58,33.5,11111222 
NERRS,ioos:station:NOAA.NERRS:rkblhwq:1,2019-10-06T10:45:00Z,26.0257,-81.7332,1.65,33.6,11111222 
NERRS,ioos:station:NOAA.NERRS:rkblhwq:1,2019-10-06T11:45:00Z,26.0257,-81.7332,1.68,33.7,11111222 
NERRS,ioos:station:NOAA.NERRS:rkblhwq:1,2019-10-06T12:45:00Z,26.0257,-81.7332,1.68,33.4,11111222 
NERRS,ioos:station:NOAA.NERRS:rkblhwq:1,2019-10-06T13:45:00Z,26.0257,-81.7332,1.63,33.4,11111222 
NERRS,ioos:station:NOAA.NERRS:rkblhwq:1,2019-10-06T14:45:00Z,26.0257,-81.7332,1.54,33.3,11111222 
NERRS,ioos:station:NOAA.NERRS:rkblhwq:1,2019-10-06T15:45:00Z,26.0257,-81.7332,1.43,33.3,11111222 
NERRS,ioos:station:NOAA.NERRS:rkblhwq:1,2019-10-06T16:45:00Z,26.0257,-81.7332,1.31,33.1,11111222 
NERRS,ioos:station:NOAA.NERRS:rkblhwq:1,2019-10-06T17:45:00Z,26.0257,-81.7332,1.18,33.0,11111222 
NERRS,ioos:station:NOAA.NERRS:rkblhwq:1,2019-10-06T18:45:00Z,26.0257,-81.7332,1.08,33.0,11111222 
NERRS,ioos:station:NOAA.NERRS:rkblhwq:1,2019-10-06T19:45:00Z,26.0257,-81.7332,1.06,33.0,11111222 
NERRS,ioos:station:NOAA.NERRS:rkblhwq:1,2019-10-06T20:45:00Z,26.0257,-81.7332,1.13,33.2,11111222 
NERRS,ioos:station:NOAA.NERRS:rkblhwq:1,2019-10-06T21:45:00Z,26.0257,-81.7332,1.24,33.2,11111222 
NERRS,ioos:station:NOAA.NERRS:rkblhwq:1,2019-10-06T22:45:00Z,26.0257,-81.7332,1.36,33.5,11111222 
NERRS,ioos:station:NOAA.NERRS:rkblhwq:1,2019-10-06T23:45:00Z,26.0257,-81.7332,1.47,33.7,11111222 
NERRS,ioos:station:NOAA.NERRS:rkblhwq:1,2019-10-07T00:45:00Z,26.0257,-81.7332,1.56,33.8,11111222 
NERRS,ioos:station:NOAA.NERRS:rkblhwq:1,2019-10-07T01:45:00Z,26.0257,-81.7332,1.62,33.8,11111222 
NERRS,ioos:station:NOAA.NERRS:rkblhwq:1,2019-10-07T02:45:00Z,26.0257,-81.7332,1.64,33.9,11111222 
NERRS,ioos:station:NOAA.NERRS:rkblhwq:1,2019-10-07T03:45:00Z,26.0257,-81.7332,1.59,33.6,11111222 
NERRS,ioos:station:NOAA.NERRS:rkblhwq:1,2019-10-07T04:45:00Z,26.0257,-81.7332,1.53,33.5,11111222 
NERRS,ioos:station:NOAA.NERRS:rkblhwq:1,2019-10-07T05:45:00Z,26.0257,-81.7332,1.47,33.1,11111222 
NERRS,ioos:station:NOAA.NERRS:rkblhwq:1,2019-10-07T06:45:00Z,26.0257,-81.7332,1.39,33.0,11111222 
NERRS,ioos:station:NOAA.NERRS:rkblhwq:1,2019-10-07T07:45:00Z,26.0257,-81.7332,1.34,33.0,11111222 
NERRS,ioos:station:NOAA.NERRS:rkblhwq:1,2019-10-07T08:45:00Z,26.0257,-81.7332,1.4,33.3,11111222 
NERRS,ioos:station:NOAA.NERRS:rkblhwq:1,2019-10-07T09:45:00Z,26.0257,-81.7332,1.5,33.6,11111222 
NERRS,ioos:station:NOAA.NERRS:rkblhwq:1,2019-10-07T10:45:00Z,26.0257,-81.7332,1.58,33.5,11111222 
NERRS,ioos:station:NOAA.NERRS:rkblhwq:1,2019-10-07T11:45:00Z,26.0257,-81.7332,1.65,33.7,11111222 
NERRS,ioos:station:NOAA.NERRS:rkblhwq:1,2019-10-07T12:45:00Z,26.0257,-81.7332,1.7,33.8,11111222 
NERRS,ioos:station:NOAA.NERRS:rkblhwq:1,2019-10-07T14:45:00Z,26.0257,-81.7332,1.7,33.6,11111222 
NERRS,ioos:station:NOAA.NERRS:rkblhwq:1,2019-10-07T15:45:00Z,26.0257,-81.7332,1.61,33.4,11111222 
NERRS,ioos:station:NOAA.NERRS:rkblhwq:1,2019-10-07T16:45:00Z,26.0257,-81.7332,1.51,33.3,11111222 
NERRS,ioos:station:NOAA.NERRS:rkblhwq:1,2019-10-07T17:45:00Z,26.0257,-81.7332,1.38,33.1,11111222 
NERRS,ioos:station:NOAA.NERRS:rkblhwq:1,2019-10-07T18:45:00Z,26.0257,-81.7332,1.27,33.8,11111222 
NERRS,ioos:station:NOAA.NERRS:rkblhwq:1,2019-10-07T19:45:00Z,26.0257,-81.7332,1.16,33.5,11111222 
NERRS,ioos:station:NOAA.NERRS:rkblhwq:1,2019-10-07T20:45:00Z,26.0257,-81.7332,1.11,33.3,11111222 
NERRS,ioos:station:NOAA.NERRS:rkblhwq:1,2019-10-07T21:45:00Z,26.0257,-81.7332,1.16,33.1,11111222 
NERRS,ioos:station:NOAA.NERRS:rkblhwq:1,2019-10-07T22:45:00Z,26.0257,-81.7332,1.26,33.6,11111222 
NERRS,ioos:station:NOAA.NERRS:rkblhwq:1,2019-10-07T23:45:00Z,26.0257,-81.7332,1.36,33.5,11111222 
NERRS,ioos:station:NOAA.NERRS:rkblhwq:1,2019-10-08T00:45:00Z,26.0257,-81.7332,1.48,33.5,11111222 
NERRS,ioos:station:NOAA.NERRS:rkblhwq:1,2019-10-08T01:45:00Z,26.0257,-81.7332,1.59,33.8,11111222 
NERRS,ioos:station:NOAA.NERRS:rkblhwq:1,2019-10-08T02:45:00Z,26.0257,-81.7332,1.66,34.0,11111222 
NERRS,ioos:station:NOAA.NERRS:rkblhwq:1,2019-10-08T03:45:00Z,26.0257,-81.7332,1.71,34.1,11111222 
NERRS,ioos:station:NOAA.NERRS:rkblhwq:1,2019-10-08T04:45:00Z,26.0257,-81.7332,1.72,34.1,11111222 
NERRS,ioos:station:NOAA.NERRS:rkblhwq:1,2019-10-08T05:45:00Z,26.0257,-81.7332,1.67,34.0,11111222 
NERRS,ioos:station:NOAA.NERRS:rkblhwq:1,2019-10-08T06:45:00Z,26.0257,-81.7332,1.58,33.6,11111222 
NERRS,ioos:station:NOAA.NERRS:rkblhwq:1,2019-10-08T07:45:00Z,26.0257,-81.7332,1.51,33.8,11111222 
NERRS,ioos:station:NOAA.NERRS:rkblhwq:1,2019-10-08T08:45:00Z,26.0257,-81.7332,1.45,33.4,11111222 
NERRS,ioos:station:NOAA.NERRS:rkblhwq:1,2019-10-08T09:45:00Z,26.0257,-81.7332,1.44,33.6,11111222 
NERRS,ioos:station:NOAA.NERRS:rkblhwq:1,2019-10-08T10:45:00Z,26.0257,-81.7332,1.52,33.9,11111222 
NERRS,ioos:station:NOAA.NERRS:rkblhwq:1,2019-10-08T11:45:00Z,26.0257,-81.7332,1.62,33.9,11111222 
NERRS,ioos:station:NOAA.NERRS:rkblhwq:1,2019-10-08T12:45:00Z,26.0257,-81.7332,1.68,33.9,11111222 
NERRS,ioos:station:NOAA.NERRS:rkblhwq:1,2019-10-08T13:45:00Z,26.0257,-81.7332,1.74,34.1,11111222 
NERRS,ioos:station:NOAA.NERRS:rkblhwq:1,2019-10-08T14:45:00Z,26.0257,-81.7332,1.77,34.1,11111222 
NERRS,ioos:station:NOAA.NERRS:rkblhwq:1,2019-10-08T15:45:00Z,26.0257,-81.7332,1.75,34.0,11111222 
NERRS,ioos:station:NOAA.NERRS:rkblhwq:1,2019-10-08T16:45:00Z,26.0257,-81.7332,1.67,34.0,11111222 
NERRS,ioos:station:NOAA.NERRS:rkblhwq:1,2019-10-08T17:45:00Z,26.0257,-81.7332,1.58,34.1,11111222 
NERRS,ioos:station:NOAA.NERRS:rkblhwq:1,2019-10-08T18:45:00Z,26.0257,-81.7332,1.46,33.9,11111222 
NERRS,ioos:station:NOAA.NERRS:rkblhwq:1,2019-10-08T19:45:00Z,26.0257,-81.7332,1.33,33.7,11111222 
NERRS,ioos:station:NOAA.NERRS:rkblhwq:1,2019-10-08T20:45:00Z,26.0257,-81.7332,1.22,33.5,11111222 
NERRS,ioos:station:NOAA.NERRS:rkblhwq:1,2019-10-08T21:45:00Z,26.0257,-81.7332,1.16,33.5,11111222 
NERRS,ioos:station:NOAA.NERRS:rkblhwq:1,2019-10-08T22:45:00Z,26.0257,-81.7332,1.23,33.6,11111222 
NERRS,ioos:station:NOAA.NERRS:rkblhwq:1,2019-10-08T23:45:00Z,26.0257,-81.7332,1.34,33.8,11111222 
NERRS,ioos:station:NOAA.NERRS:rkblhwq:1,2019-10-09T00:45:00Z,26.0257,-81.7332,1.45,33.8,11111222 
NERRS,ioos:station:NOAA.NERRS:rkblhwq:1,2019-10-09T01:45:00Z,26.0257,-81.7332,1.58,33.9,11111222 
NERRS,ioos:station:NOAA.NERRS:rkblhwq:1,2019-10-09T02:45:00Z,26.0257,-81.7332,1.67,34.1,11111222 
NERRS,ioos:station:NOAA.NERRS:rkblhwq:1,2019-10-09T03:45:00Z,26.0257,-81.7332,1.72,34.2,11111222 
NERRS,ioos:station:NOAA.NERRS:rkblhwq:1,2019-10-09T04:45:00Z,26.0257,-81.7332,1.73,34.3,11111222 
NERRS,ioos:station:NOAA.NERRS:rkblhwq:1,2019-10-09T05:45:00Z,26.0257,-81.7332,1.66,34.0,11111222 
NERRS,ioos:station:NOAA.NERRS:rkblhwq:1,2019-10-09T06:45:00Z,26.0257,-81.7332,1.57,34.0,11111222 
NERRS,ioos:station:NOAA.NERRS:rkblhwq:1,2019-10-09T07:45:00Z,26.0257,-81.7332,1.49,33.7,11111222 
NERRS,ioos:station:NOAA.NERRS:rkblhwq:1,2019-10-09T08:45:00Z,26.0257,-81.7332,1.42,33.7,11111222 
NERRS,ioos:station:NOAA.NERRS:rkblhwq:1,2019-10-09T09:45:00Z,26.0257,-81.7332,1.36,33.6,11111222 
NERRS,ioos:station:NOAA.NERRS:rkblhwq:1,2019-10-09T10:45:00Z,26.0257,-81.7332,1.39,33.7,11111222 
NERRS,ioos:station:NOAA.NERRS:rkblhwq:1,2019-10-09T11:45:00Z,26.0257,-81.7332,1.46,33.6,11111222 
NERRS,ioos:station:NOAA.NERRS:rkblhwq:1,2019-10-09T12:45:00Z,26.0257,-81.7332,1.58,33.9,11111222 
NERRS,ioos:station:NOAA.NERRS:rkblhwq:1,2019-10-09T13:45:00Z,26.0257,-81.7332,1.67,33.9,11111222 
NERRS,ioos:station:NOAA.NERRS:rkblhwq:1,2019-10-09T14:45:00Z,26.0257,-81.7332,1.73,34.0,11111222 
NERRS,ioos:station:NOAA.NERRS:rkblhwq:1,2019-10-09T15:45:00Z,26.0257,-81.7332,1.76,34.1,11111222 
NERRS,ioos:station:NOAA.NERRS:rkblhwq:1,2019-10-09T16:45:00Z,26.0257,-81.7332,1.73,33.9,11111222 
NERRS,ioos:station:NOAA.NERRS:rkblhwq:1,2019-10-09T17:45:00Z,26.0257,-81.7332,1.65,33.9,11111222 
NERRS,ioos:station:NOAA.NERRS:rkblhwq:1,2019-10-09T18:45:00Z,26.0257,-81.7332,1.54,34.0,11111222 
NERRS,ioos:station:NOAA.NERRS:rkblhwq:1,2019-10-09T19:45:00Z,26.0257,-81.7332,1.4,33.8,11111222 
NERRS,ioos:station:NOAA.NERRS:rkblhwq:1,2019-10-09T20:45:00Z,26.0257,-81.7332,1.26,33.4,11111222 
NERRS,ioos:station:NOAA.NERRS:rkblhwq:1,2019-10-09T21:45:00Z,26.0257,-81.7332,1.14,33.2,11111222 
NERRS,ioos:station:NOAA.NERRS:rkblhwq:1,2019-10-09T22:45:00Z,26.0257,-81.7332,1.08,33.5,11111222 
NERRS,ioos:station:NOAA.NERRS:rkblhwq:1,2019-10-10T01:45:00Z,26.0257,-81.7332,1.44,33.8,11111222 
NERRS,ioos:station:NOAA.NERRS:rkblhwq:1,2019-10-10T02:45:00Z,26.0257,-81.7332,1.53,33.8,11111222 
NERRS,ioos:station:NOAA.NERRS:rkblhwq:1,2019-10-10T03:45:00Z,26.0257,-81.7332,1.62,33.8,11111222 
NERRS,ioos:station:NOAA.NERRS:rkblhwq:1,2019-10-10T04:45:00Z,26.0257,-81.7332,1.65,33.9,11111222 
NERRS,ioos:station:NOAA.NERRS:rkblhwq:1,2019-10-10T05:45:00Z,26.0257,-81.7332,1.64,33.6,11111222 
NERRS,ioos:station:NOAA.NERRS:rkblhwq:1,2019-10-10T06:45:00Z,26.0257,-81.7332,1.57,33.5,11111222 
NERRS,ioos:station:NOAA.NERRS:rkblhwq:1,2019-10-10T07:45:00Z,26.0257,-81.7332,1.46,33.4,11111222 
NERRS,ioos:station:NOAA.NERRS:rkblhwq:1,2019-10-10T08:45:00Z,26.0257,-81.7332,1.34,33.0,11111222 
NERRS,ioos:station:NOAA.NERRS:rkblhwq:1,2019-10-10T09:45:00Z,26.0257,-81.7332,1.24,33.3,11111222 
NERRS,ioos:station:NOAA.NERRS:rkblhwq:1,2019-10-10T10:45:00Z,26.0257,-81.7332,1.22,33.1,11111222 
NERRS,ioos:station:NOAA.NERRS:rkblhwq:1,2019-10-10T11:45:00Z,26.0257,-81.7332,1.32,33.3,11111222 
NERRS,ioos:station:NOAA.NERRS:rkblhwq:1,2019-10-10T12:45:00Z,26.0257,-81.7332,1.44,33.3,11111222 
NERRS,ioos:station:NOAA.NERRS:rkblhwq:1,2019-10-10T13:45:00Z,26.0257,-81.7332,1.57,33.5,11111222 
NERRS,ioos:station:NOAA.NERRS:rkblhwq:1,2019-10-10T14:45:00Z,26.0257,-81.7332,1.67,33.7,11111222 
NERRS,ioos:station:NOAA.NERRS:rkblhwq:1,2019-10-10T15:45:00Z,26.0257,-81.7332,1.73,33.9,11111222 
NERRS,ioos:station:NOAA.NERRS:rkblhwq:1,2019-10-10T16:45:00Z,26.0257,-81.7332,1.75,34.0,11111222 
NERRS,ioos:station:NOAA.NERRS:rkblhwq:1,2019-10-10T17:45:00Z,26.0257,-81.7332,1.69,33.2,11111222 
NERRS,ioos:station:NOAA.NERRS:rkblhwq:1,2019-10-10T18:45:00Z,26.0257,-81.7332,1.59,33.4,11111222 
NERRS,ioos:station:NOAA.NERRS:rkblhwq:1,2019-10-10T19:45:00Z,26.0257,-81.7332,1.46,32.9,11111222 
NERRS,ioos:station:NOAA.NERRS:rkblhwq:1,2019-10-10T20:45:00Z,26.0257,-81.7332,1.32,33.0,11111222 
NERRS,ioos:station:NOAA.NERRS:rkblhwq:1,2019-10-10T21:45:00Z,26.0257,-81.7332,1.2,32.9,11111222 
NERRS,ioos:station:NOAA.NERRS:rkblhwq:1,2019-10-10T22:45:00Z,26.0257,-81.7332,1.1,33.0,11111222 
NERRS,ioos:station:NOAA.NERRS:rkblhwq:1,2019-10-10T23:45:00Z,26.0257,-81.7332,1.11,32.7,11111222 
NERRS,ioos:station:NOAA.NERRS:rkblhwq:1,2019-10-11T00:45:00Z,26.0257,-81.7332,1.23,33.1,11111222 
NERRS,ioos:station:NOAA.NERRS:rkblhwq:1,2019-10-11T01:45:00Z,26.0257,-81.7332,1.37,33.0,11111222 
NERRS,ioos:station:NOAA.NERRS:rkblhwq:1,2019-10-11T02:45:00Z,26.0257,-81.7332,1.51,33.4,11111222 
NERRS,ioos:station:NOAA.NERRS:rkblhwq:1,2019-10-11T03:45:00Z,26.0257,-81.7332,1.63,33.7,11111222 
NERRS,ioos:station:NOAA.NERRS:rkblhwq:1,2019-10-11T04:45:00Z,26.0257,-81.7332,1.7,33.7,11111222 
NERRS,ioos:station:NOAA.NERRS:rkblhwq:1,2019-10-11T05:45:00Z,26.0257,-81.7332,1.7,33.7,11111222 
NERRS,ioos:station:NOAA.NERRS:rkblhwq:1,2019-10-11T06:45:00Z,26.0257,-81.7332,1.61,32.9,11111222 
NERRS,ioos:station:NOAA.NERRS:rkblhwq:1,2019-10-11T07:45:00Z,26.0257,-81.7332,1.51,32.5,11111222 
NERRS,ioos:station:NOAA.NERRS:rkblhwq:1,2019-10-11T08:45:00Z,26.0257,-81.7332,1.39,32.3,11111222 